• In Hungary
  • List of Countries
  • For 7 days
  • Water Temperature
  • Satellite Maps
  • Weather Map
  • News
  • Weather Widgets
  • user-avatar
    Login

    Hourly Weather Angoya

    Today, 13 December, Wednesday

    Time Temperature Precipitation Wind Pressure Humidity
    00:00 -26°C° 0 mm 2 mps 627 mmHg 60%
    01:00 -26°C° 0 mm 2 mps 627 mmHg 63%
    02:00 -26°C° 0 mm 2 mps 627 mmHg 62%
    03:00 -26°C° 0 mm 2 mps 627 mmHg 62%
    04:00 -26°C° 0 mm 2 mps 626 mmHg 62%
    05:00 -26°C° 0 mm 2 mps 627 mmHg 61%
    06:00 -26°C° 0 mm 2 mps 627 mmHg 61%
    07:00 -26°C° 0 mm 2 mps 627 mmHg 60%
    08:00 -25°C° 0 mm 2 mps 627 mmHg 61%
    09:00 -25°C° 0 mm 2 mps 627 mmHg 63%
    10:00 -21°C° 0 mm 1 mps 628 mmHg 64%
    11:00 -20°C° 0 mm 1 mps 628 mmHg 67%
    12:00 -20°C° 0 mm 1 mps 628 mmHg 71%
    13:00 -19°C° 0 mm 1 mps 628 mmHg 74%
    14:00 -20°C° 0 mm 1 mps 628 mmHg 78%
    15:00 -22°C° 0 mm 1 mps 628 mmHg 82%
    16:00 -23°C° 0 mm 1 mps 628 mmHg 86%
    17:00 -23°C° 0 mm 1 mps 628 mmHg 87%
    18:00 -22°C° 0 mm 1 mps 628 mmHg 88%
    19:00 -22°C° 0 mm 1 mps 628 mmHg 89%
    20:00 -22°C° 0.1 mm 1 mps 629 mmHg 90%
    21:00 -22°C° 0.1 mm 1 mps 629 mmHg 90%
    22:00 -22°C° 0.1 mm 1 mps 629 mmHg 90%
    23:00 -22°C° 0.1 mm 1 mps 629 mmHg 91%

    Tomorrow, 14 December, Thursday

    Time Temperature Precipitation Wind Pressure Humidity
    00:00 -22°C° 0.1 mm 1 mps 629 mmHg 91%
    01:00 -22°C° 0.1 mm 1 mps 629 mmHg 91%
    02:00 -22°C° 0.1 mm 1 mps 629 mmHg 91%
    03:00 -23°C° 0.1 mm 1 mps 628 mmHg 91%
    04:00 -23°C° 0.1 mm 1 mps 628 mmHg 91%
    05:00 -23°C° 0 mm 1 mps 628 mmHg 90%
    06:00 -23°C° 0 mm 1 mps 628 mmHg 90%
    07:00 -23°C° 0 mm 1 mps 628 mmHg 90%
    08:00 -23°C° 0 mm 1 mps 628 mmHg 89%
    09:00 -23°C° 0 mm 1 mps 628 mmHg 88%
    10:00 -22°C° 0 mm 1 mps 629 mmHg 87%
    11:00 -22°C° 0 mm 1 mps 629 mmHg 87%
    12:00 -22°C° 0 mm 1 mps 629 mmHg 87%
    13:00 -21°C° 0 mm 1 mps 629 mmHg 87%
    14:00 -23°C° 0 mm 1 mps 628 mmHg 88%
    15:00 -24°C° 0 mm 1 mps 628 mmHg 89%
    16:00 -25°C° 0 mm 1 mps 628 mmHg 90%
    17:00 -25°C° 0 mm 1 mps 628 mmHg 90%
    18:00 -27°C° 0 mm 1 mps 628 mmHg 89%
    19:00 -27°C° 0 mm 1 mps 628 mmHg 89%
    20:00 -27°C° 0 mm 1 mps 628 mmHg 88%
    21:00 -28°C° 0 mm 1 mps 628 mmHg 88%
    22:00 -30°C° 0 mm 2 mps 628 mmHg 88%
    23:00 -31°C° 0 mm 2 mps 627 mmHg 87%

    Day after tomorrow, 15 December, Friday

    Time Temperature Precipitation Wind Pressure Humidity
    00:00 -31°C° 0 mm 2 mps 627 mmHg 87%
    01:00 -31°C° 0 mm 2 mps 627 mmHg 86%
    02:00 -31°C° 0 mm 2 mps 627 mmHg 86%
    03:00 -32°C° 0 mm 2 mps 627 mmHg 86%
    04:00 -32°C° 0 mm 2 mps 627 mmHg 86%
    05:00 -32°C° 0 mm 2 mps 628 mmHg 86%
    06:00 -32°C° 0 mm 2 mps 628 mmHg 86%
    07:00 -32°C° 0 mm 2 mps 628 mmHg 86%
    08:00 -32°C° 0 mm 2 mps 628 mmHg 85%
    09:00 -31°C° 0 mm 2 mps 629 mmHg 84%
    10:00 -30°C° 0 mm 2 mps 629 mmHg 83%
    11:00 -30°C° 0 mm 2 mps 629 mmHg 84%
    12:00 -27°C° 0 mm 1 mps 629 mmHg 84%
    13:00 -25°C° 0 mm 1 mps 629 mmHg 84%
    14:00 -29°C° 0 mm 2 mps 629 mmHg 86%
    15:00 -29°C° 0 mm 2 mps 629 mmHg 87%
    16:00 -30°C° 0 mm 2 mps 629 mmHg 88%
    17:00 -30°C° 0.1 mm 2 mps 629 mmHg 89%
    18:00 -29°C° 0.1 mm 2 mps 629 mmHg 89%
    19:00 -29°C° 0.1 mm 2 mps 629 mmHg 89%
    20:00 -29°C° 0.1 mm 2 mps 629 mmHg 89%
    21:00 -29°C° 0.1 mm 2 mps 629 mmHg 90%
    22:00 -29°C° 0.1 mm 2 mps 629 mmHg 90%
    23:00 -28°C° 0.1 mm 2 mps 629 mmHg 90%

    16 December, Saturday

    Time Temperature Precipitation Wind Pressure Humidity
    00:00 -28°C° 0.1 mm 2 mps 629 mmHg 90%
    01:00 -28°C° 0.1 mm 2 mps 628 mmHg 91%
    02:00 -27°C° 0.1 mm 2 mps 628 mmHg 91%
    03:00 -27°C° 0.1 mm 2 mps 628 mmHg 91%
    04:00 -26°C° 0.1 mm 2 mps 627 mmHg 92%
    05:00 -26°C° 0.1 mm 2 mps 627 mmHg 92%
    06:00 -26°C° 0.1 mm 2 mps 627 mmHg 92%
    07:00 -25°C° 0.1 mm 2 mps 627 mmHg 93%
    08:00 -25°C° 0.1 mm 2 mps 627 mmHg 92%
    09:00 -24°C° 0.1 mm 2 mps 627 mmHg 92%
    10:00 -24°C° 0.1 mm 2 mps 627 mmHg 91%
    11:00 -23°C° 0.1 mm 2 mps 627 mmHg 90%
    12:00 -23°C° 0.1 mm 2 mps 627 mmHg 90%
    13:00 -21°C° 0.1 mm 2 mps 627 mmHg 89%
    14:00 -23°C° 0.1 mm 2 mps 626 mmHg 89%
    15:00 -24°C° 0.1 mm 2 mps 626 mmHg 90%
    16:00 -24°C° 0.1 mm 2 mps 626 mmHg 90%
    17:00 -24°C° 0.1 mm 2 mps 626 mmHg 89%
    18:00 -25°C° 0.1 mm 2 mps 626 mmHg 89%
    19:00 -25°C° 0.1 mm 2 mps 626 mmHg 88%
    20:00 -25°C° 0.1 mm 2 mps 626 mmHg 89%
    21:00 -24°C° 0.1 mm 2 mps 626 mmHg 89%
    22:00 -24°C° 0.1 mm 2 mps 626 mmHg 89%
    23:00 -24°C° 0.1 mm 2 mps 626 mmHg 89%

    17 December, Sunday

    Time Temperature Precipitation Wind Pressure Humidity
    00:00 -24°C° 0.1 mm 2 mps 626 mmHg 89%
    01:00 -25°C° 0.1 mm 2 mps 625 mmHg 90%
    02:00 -25°C° 0.1 mm 2 mps 625 mmHg 90%
    03:00 -25°C° 0.1 mm 2 mps 625 mmHg 90%
    04:00 -25°C° 0.1 mm 2 mps 625 mmHg 90%
    05:00 -25°C° 0.1 mm 2 mps 625 mmHg 90%
    06:00 -25°C° 0.1 mm 2 mps 625 mmHg 90%
    07:00 -26°C° 0.1 mm 2 mps 625 mmHg 90%
    08:00 -25°C° 0.1 mm 2 mps 626 mmHg 89%
    09:00 -25°C° 0.1 mm 2 mps 626 mmHg 89%
    10:00 -24°C° 0.1 mm 2 mps 626 mmHg 88%
    11:00 -25°C° 0.1 mm 3 mps 626 mmHg 88%
    12:00 -24°C° 0.1 mm 3 mps 627 mmHg 87%
    13:00 -24°C° 0.1 mm 3 mps 627 mmHg 86%
    14:00 -25°C° 0.1 mm 3 mps 627 mmHg 88%
    15:00 -25°C° 0.1 mm 2 mps 627 mmHg 89%
    16:00 -25°C° 0.1 mm 2 mps 627 mmHg 91%
    17:00 -26°C° 0 mm 2 mps 628 mmHg 90%
    18:00 -27°C° 0 mm 2 mps 628 mmHg 90%
    19:00 -28°C° 0 mm 2 mps 628 mmHg 90%
    20:00 -29°C° 0 mm 2 mps 628 mmHg 90%
    21:00 -30°C° 0 mm 2 mps 628 mmHg 89%
    22:00 -31°C° 0 mm 2 mps 628 mmHg 89%
    23:00 -32°C° 0 mm 2 mps 628 mmHg 88%

    18 December, Monday

    Time Temperature Precipitation Wind Pressure Humidity
    00:00 -32°C° 0 mm 2 mps 628 mmHg 87%
    01:00 -32°C° 0 mm 2 mps 628 mmHg 86%
    02:00 -32°C° 0 mm 2 mps 628 mmHg 85%
    03:00 -32°C° 0 mm 2 mps 628 mmHg 83%
    04:00 -32°C° 0 mm 2 mps 628 mmHg 82%
    05:00 -32°C° 0 mm 2 mps 628 mmHg 80%
    06:00 -32°C° 0 mm 2 mps 629 mmHg 78%
    07:00 -31°C° 0 mm 2 mps 629 mmHg 77%
    08:00 -30°C° 0 mm 2 mps 629 mmHg 77%
    09:00 -29°C° 0 mm 2 mps 630 mmHg 77%
    10:00 -25°C° 0 mm 1 mps 630 mmHg 77%
    11:00 -24°C° 0 mm 1 mps 630 mmHg 78%
    12:00 -23°C° 0 mm 1 mps 630 mmHg 80%
    13:00 -22°C° 0 mm 1 mps 630 mmHg 82%
    14:00 -23°C° 0 mm 1 mps 630 mmHg 84%
    15:00 -24°C° 0 mm 1 mps 630 mmHg 85%
    16:00 -25°C° 0 mm 1 mps 629 mmHg 87%
    17:00 -25°C° 0 mm 1 mps 629 mmHg 87%
    18:00 -25°C° 0 mm 1 mps 629 mmHg 88%
    19:00 -28°C° 0 mm 2 mps 629 mmHg 88%
    20:00 -28°C° 0 mm 2 mps 628 mmHg 88%
    21:00 -28°C° 0 mm 2 mps 628 mmHg 89%
    22:00 -28°C° 0 mm 2 mps 627 mmHg 89%
    23:00 -27°C° 0 mm 2 mps 627 mmHg 89%
    Show more